This demonstration page uses our WeatherBlox Daily Observations layout. Learn more.

Hourly Observations for January 20, 2016

Temp ( °F °C ) Dew Point ( °F °C ) Humidity (%) Winds ( mph kmh ) Pressure ( in mb ) Visibility ( mi km ) Precip ( " mm )
12:15 am 00:15 Cloudy 26 -3.2 23 -5 88 88 S 7 11 30.27 1025 10 16.0934 0 0
12:35 am 00:35 Cloudy 27 -3 23 -4.9 87 87 S 7 11 30.27 1025 10 16.0934 0 0
12:55 am 00:55 Cloudy 27 -2.7 24 -4.7 86 86 S 7 11 30.24 1024 10 16.0934 0 0
1:15 am 01:15 Cloudy 27 -2.6 24 -4.6 86 86 S 8 13 30.24 1024 10 16.0934 0 0
1:35 am 01:35 Cloudy 27 -2.7 24 -4.6 87 87 S 7 11 30.24 1024 10 16.0934 0 0
1:55 am 01:55 Cloudy 27 -2.8 24 -4.7 87 87 S 7 11 30.24 1024 10 16.0934 0 0
2:15 am 02:15 Cloudy 27 -2.7 24 -4.5 88 88 S 6 9 30.24 1024 10 16.0934 0 0
2:35 am 02:35 Cloudy 27 -2.6 24 -4.3 88 88 S 8 13 30.24 1024 10 16.0934 0 0
2:55 am 02:55 Cloudy 27 -2.6 24 -4.3 88 88 S 7 11 30.21 1023 10 16.0934 0 0
3:15 am 03:15 Cloudy 28 -2.5 24 -4.2 88 88 S 7 11 30.18 1022 10 16.0934 0 0
3:35 am 03:35 Cloudy 27 -2.6 24 -4.2 89 89 S 6 9 30.21 1023 10 16.0934 0 0
3:55 am 03:55 Cloudy 28 -2.5 25 -4 90 90 S 8 13 30.18 1022 10 16.0934 0 0
4:15 am 04:15 Cloudy 28 -2.3 26 -3.6 91 91 SSW 14 22 30.18 1022 10 16.0934 0 0
4:35 am 04:35 Cloudy 28 -2.1 26 -3.3 92 92 S 12 19 30.18 1022 10 16.0934 0 0
4:55 am 04:55 Cloudy 28 -2.1 26 -3.3 92 92 S 10 17 30.15 1021 10 16.0934 0 0
5:15 am 05:15 Cloudy 28 -2.1 26 -3.5 90 90 S 12 19 30.15 1021 10 16.0934 0 0
5:35 am 05:35 Cloudy 28 -2.2 26 -3.5 91 91 S 10 17 30.15 1021 10 16.0934 0 0
5:55 am 05:55 Cloudy 28 -2.2 26 -3.4 92 92 SSW 12 19 30.15 1021 7 11.26538 0 0
6:15 am 06:15 Cloudy 28 -2.4 26 -3.4 93 93 S 12 19 30.15 1021 7 11.26538 0 0
6:35 am 06:35 Cloudy 28 -2.5 26 -3.3 94 94 S 10 17 30.15 1021 7 11.26538 0 0
6:55 am 06:55 Cloudy with Mist and Fog 27 -2.6 26 -3.5 94 94 SSW 10 17 30.15 1021 5 8.0467 0 0
7:15 am 07:15 Cloudy with Mist and Fog 27 -2.6 26 -3.4 94 94 SSW 12 19 30.15 1021 5 8.0467 0 0
7:35 am 07:35 Cloudy with Mist and Fog 27 -2.6 26 -3.3 95 95 S 9 15 30.12 1020 5 8.0467 0 0
7:55 am 07:55 Cloudy 28 -2.5 26 -3.3 94 94 S 10 17 30.15 1021 7 11.26538 0 0
8:15 am 08:15 Cloudy 27 -2.6 25 -3.7 92 92 S 12 19 30.15 1021 7 11.26538 0 0
8:35 am 08:35 Cloudy 27 -2.6 25 -3.8 92 92 S 10 17 30.15 1021 7 11.26538 0 0
8:55 am 08:55 Partly Cloudy 27 -2.9 24 -4.2 91 91 S 12 19 30.15 1021 7 11.26538 0 0
9:15 am 09:15 Mostly Cloudy 27 -3 24 -4.2 92 92 S 14 22 30.12 1020 7 11.26538 0 0
9:35 am 09:35 Cloudy 27 -2.8 25 -4 92 92 S 10 17 30.12 1020 7 11.26538 0 0
9:55 am 09:55 Mostly Cloudy 28 -2.5 25 -4 90 90 S 12 19 30.12 1020 7 11.26538 0 0
10:15 am 10:15 Cloudy 28 -2.1 26 -3.6 90 90 S 13 20 30.12 1020 10 16.0934 0 0
10:35 am 10:35 Cloudy 30 -1.3 26 -3.4 86 86 S 12 19 30.12 1020 10 16.0934 0 0
10:55 am 10:55 Mostly Cloudy 30 -1.2 26 -3.5 85 85 S 13 20 30.12 1020 10 16.0934 0 0
11:15 am 11:15 Mostly Cloudy 30 -1 26 -3.5 83 83 SSE 14 22 30.12 1020 10 16.0934 0 0
11:35 am 11:35 Mostly Cloudy 31 -0.5 26 -3.2 82 82 SSE 15 24 30.06 1018 10 16.0934 0 0
11:55 am 11:55 Partly Cloudy 32 0.1 26 -3.1 79 79 S 10 17 30.06 1018 10 16.0934 0 0
12:15 pm 12:15 Partly Cloudy 32 0 27 -3 80 80 S 13 20 30.06 1018 10 16.0934 0 0
12:35 pm 12:35 Mostly Cloudy 33 0.6 27 -2.9 78 78 S 13 20 30.03 1017 10 16.0934 0 0
12:55 pm 12:55 Cloudy 34 0.9 27 -2.8 77 77 S 12 19 30.03 1017 10 16.0934 0 0
1:15 pm 13:15 Cloudy 35 1.6 27 -2.9 72 72 SSE 10 17 30.03 1017 10 16.0934 0 0
1:35 pm 13:35 Cloudy 35 1.8 27 -3 71 71 SSE 12 19 29.97 1015 10 16.0934 0 0
1:55 pm 13:55 Mostly Cloudy 35 1.5 26 -3.4 70 70 SSE 12 19 29.97 1015 10 16.0934 0 0
2:15 pm 14:15 Cloudy 33 0.7 26 -3.5 74 74 S 10 17 30 1016 10 16.0934 0 0
2:35 pm 14:35 Cloudy 33 0.5 26 -3.5 75 75 SSE 13 20 29.97 1015 10 16.0934 0 0
2:55 pm 14:55 Cloudy 33 0.5 25 -3.7 74 74 SSE 13 20 29.97 1015 10 16.0934 0 0
3:15 pm 15:15 Cloudy 33 0.4 25 -3.7 74 74 SSE 12 19 29.97 1015 10 16.0934 0 0
3:35 pm 15:35 Cloudy 33 0.5 24 -4.2 71 71 SSE 15 24 29.97 1015 10 16.0934 0 0
3:55 pm 15:55 Cloudy 32 0.1 23 -4.8 70 70 SSE 15 24 29.97 1015 10 16.0934 0 0
4:15 pm 16:15 Cloudy 32 0 23 -5 69 69 SSE 15 24 30 1016 10 16.0934 0 0
4:35 pm 16:35 Cloudy 32 0 23 -5.1 69 69 SSE 13 20 30 1016 10 16.0934 0 0
4:55 pm 16:55 Cloudy 32 0 23 -5 69 69 SSE 10 17 30 1016 10 16.0934 0 0
5:15 pm 17:15 Cloudy 32 -0.1 23 -4.8 71 71 S 13 20 30 1016 10 16.0934 0 0
5:35 pm 17:35 Cloudy 31 -0.4 25 -4.1 76 76 SSE 14 22 30 1016 10 16.0934 0 0
5:55 pm 17:55 Cloudy 30 -1.1 26 -3.2 86 86 S 9 15 30 1016 7 11.26538 0 0
6:15 pm 18:15 Cloudy 30 -1.3 27 -2.8 90 90 SSE 7 11 30 1016 7 11.26538 0 0
6:35 pm 18:35 Cloudy 30 -1.3 27 -2.7 90 90 S 8 13 30.06 1018 7 11.26538 0 0
6:55 pm 18:55 Cloudy with Light Snow 30 -1.3 27 -2.6 91 91 S 7 11 30.06 1018 5 8.0467 0 0
7:15 pm 19:15 Cloudy with Light Snow 29 -1.5 27 -2.7 92 92 S 8 13 30.06 1018 5 8.0467 0 0
7:35 pm 19:35 Cloudy with Light Snow 29 -1.7 27 -2.8 92 92 SSE 6 9 30.06 1018 3 4.82802 0 0
7:55 pm 19:55 Cloudy with Light Snow 28 -2 27 -3 93 93 SSE 6 9 30.06 1018 4 6.43736 0 0
8:15 pm 20:15 Cloudy with Light Snow 28 -2 27 -3 93 93 S 7 11 30.09 1019 4 6.43736 0 0
8:35 pm 20:35 Cloudy with Light Snow 28 -2.1 26 -3.1 93 93 SSE 6 9 30.09 1019 4 6.43736 0 0
8:55 pm 20:55 Cloudy with Light Snow 28 -2.1 26 -3.1 93 93 S 8 13 30.09 1019 2 3.21868 0 0
9:15 pm 21:15 Cloudy with Light Snow 28 -2.2 26 -3.3 92 92 S 7 11 30.09 1019 3 4.82802 0 0
9:35 pm 21:35 Cloudy with Light Snow 28 -2.4 26 -3.4 93 93 S 5 7 30.09 1019 2 3.21868 0 0
9:55 pm 21:55 Cloudy with Light Snow 28 -2.4 26 -3.2 94 94 S 5 7 30.09 1019 1.5 2.41401 0 0
10:15 pm 22:15 Cloudy with Light Snow 28 -2.5 26 -3.3 94 94 SSE 3 6 30.09 1019 1.25 2.011675 0.01 0.254
10:35 pm 22:35 Cloudy with Snow 28 -2.5 26 -3.3 94 94 Calm 30.12 1020 1 1.60934 0.02 0.508
10:55 pm 22:55 Cloudy with Snow 28 -2.5 26 -3.3 94 94 Calm 30.12 1020 1 1.60934 0.03 0.762
11:15 pm 23:15 Cloudy with Snow 28 -2.5 26 -3.2 95 95 Calm 30.12 1020 1 1.60934 0.02 0.508
11:35 pm 23:35 Cloudy with Snow 28 -2.5 26 -3.2 95 95 Calm 30.12 1020 1 1.60934 0.04 1.016
11:55 pm 23:55 Cloudy with Snow 28 -2.5 26 -3.2 95 95 Calm 30.15 1021 1 1.60934 0.05 1.27

Powered by AerisWeather